TimeMDT,TemperatureF,Dew PointF,Humidity,Sea Level PressureIn,VisibilityMPH,Wind Direction,Wind SpeedMPH,Gust SpeedMPH,PrecipitationIn,Events,Conditions,WindDirDegrees,DateUTC
12:53 AM,30.9,28.9,92,29.92,10.0,NNE,6.9,-,N/A,,Partly Cloudy,20,2014-04-07 06:53:00
1:53 AM,32.0,28.9,88,29.93,10.0,NNE,4.6,-,N/A,,Clear,20,2014-04-07 07:53:00
2:53 AM,28.9,27.0,92,29.94,10.0,North,8.1,-,N/A,,Clear,350,2014-04-07 08:53:00
3:53 AM,30.9,28.9,92,29.94,10.0,North,11.5,-,N/A,,Clear,350,2014-04-07 09:53:00
4:53 AM,30.0,28.9,96,29.93,10.0,North,9.2,-,N/A,,Clear,360,2014-04-07 10:53:00
5:53 AM,30.0,28.0,92,29.96,10.0,Calm,Calm,-,N/A,,Scattered Clouds,0,2014-04-07 11:53:00
6:17 AM,28.0,26.1,92,30.06,1.5,NNE,9.2,-,N/A,,Partly Cloudy,20,2014-04-07 12:17:00
6:19 AM,28.0,26.1,92,30.06,0.8,NNE,9.2,-,N/A,,Mist,20,2014-04-07 12:19:00
6:28 AM,30.0,28.0,92,30.06,0.2,NNE,5.8,-,N/A,Fog,Light Freezing Fog,20,2014-04-07 12:28:00
6:53 AM,30.9,30.0,96,30.01,0.5,NNE,5.8,-,N/A,Fog,Light Freezing Fog,20,2014-04-07 12:53:00
7:06 AM,30.9,30.9,100,30.08,2.0,North,11.5,-,N/A,,Overcast,360,2014-04-07 13:06:00
7:13 AM,32.0,30.9,96,30.08,6.0,North,11.5,-,N/A,,Overcast,360,2014-04-07 13:13:00
7:24 AM,32.0,30.9,96,30.09,1.8,North,12.7,-,N/A,,Overcast,360,2014-04-07 13:24:00
7:53 AM,32.0,30.9,96,30.04,1.5,North,16.1,-,N/A,,Overcast,10,2014-04-07 13:53:00
8:00 AM,32.0,30.9,96,30.10,3.0,North,16.1,-,N/A,,Overcast,360,2014-04-07 14:00:00
8:19 AM,33.1,32.0,96,30.10,10.0,North,13.8,-,N/A,,Scattered Clouds,360,2014-04-07 14:19:00
8:53 AM,37.9,30.9,76,30.04,10.0,North,16.1,-,N/A,,Clear,350,2014-04-07 14:53:00
9:53 AM,45.0,25.0,46,30.04,10.0,North,17.3,-,N/A,,Clear,350,2014-04-07 15:53:00
10:53 AM,48.9,18.0,29,30.06,10.0,North,17.3,29.9,N/A,,Clear,360,2014-04-07 16:53:00
11:53 AM,52.0,17.1,25,30.04,10.0,North,16.1,26.5,N/A,,Clear,350,2014-04-07 17:53:00
12:53 PM,55.0,12.9,19,30.05,10.0,North,20.7,28.8,N/A,,Clear,10,2014-04-07 18:53:00
2:53 PM,57.0,10.0,15,30.01,10.0,Variable,3.5,19.6,N/A,,Clear,0,2014-04-07 20:53:00
3:53 PM,61.0,10.0,13,29.97,10.0,NNE,8.1,20.7,N/A,,Clear,20,2014-04-07 21:53:00
4:53 PM,61.0,8.1,12,29.97,10.0,North,13.8,-,N/A,,Scattered Clouds,350,2014-04-07 22:53:00
5:53 PM,59.0,8.1,13,29.99,10.0,North,9.2,-,N/A,,Scattered Clouds,360,2014-04-07 23:53:00
6:53 PM,59.0,7.0,13,30.00,10.0,Calm,Calm,-,N/A,,Clear,0,2014-04-08 00:53:00
7:53 PM,55.0,9.0,16,30.03,10.0,NE,3.5,-,N/A,,Clear,50,2014-04-08 01:53:00
8:53 PM,46.0,9.0,22,30.09,10.0,North,9.2,-,N/A,,Clear,360,2014-04-08 02:53:00
9:53 PM,45.0,8.1,22,30.10,10.0,North,10.4,-,N/A,,Clear,350,2014-04-08 03:53:00
10:53 PM,41.0,8.1,26,30.14,10.0,ESE,4.6,-,N/A,,Clear,120,2014-04-08 04:53:00
11:53 PM,41.0,16.0,36,30.15,10.0,SE,6.9,-,N/A,,Clear,140,2014-04-08 05:53:00